Location: Czekan�w
(50.3488°N, 18.7344°E)
Time: 11:36:31
(UTC+00:00)

Cosmos 2322 Rocket - Pass Details

Date: 17 February 2020
Orbit: 833 x 851 km, 71.0° (Epoch: 08 April)

Event Time Altitude Azimuth Distance (km) Brightness Sun altitude
Exits shadow 02:15:17 16° 355° (N) 2,107 4.4 -34.9°
Drops below altitude 10° 02:17:01 10° 11° (N) 2,490 5.0 -34.6°
Sets 02:20:13 0° 28° (NNE) 3,429 6.0 -34.2°
